Total_Precipitation_Accumulation
0.59 0.47 0.53 0.61 0.65 0.74 1.06 1.02 1.01 0.73 0.65 0.73 0.75 0.79 0.78 0.72 0.71 0.68 0.68 0.68 0.70 0.74 0.77 0.82 0.87 0.91 0.95 1.00 1.02 1.06 1.06 1.04 1.04 1.05 1.11 1.17 1.13 1.15 1.20 1.25 1.35 1.31 1.24 1.21
0.56 0.39 0.43 0.53 0.54 0.57 0.69 0.74 0.78 0.61 0.68 0.68 0.68 0.63 0.61 0.59 0.57 0.58 0.60 0.65 0.64 0.63 0.65 0.66 0.69 0.75 0.80 0.87 0.93 0.99 0.99 0.99 0.98 0.98 1.02 1.09 1.06 1.05 1.09 1.17 1.28 1.32 1.32 1.29
0.64 0.41 0.52 0.70 0.66 0.67 0.73 0.76 0.78 0.88 0.82 0.62 0.58 0.59 0.60 0.56 0.51 0.51 0.51 0.54 0.55 0.55 0.58 0.60 0.61 0.62 0.68 0.74 0.79 0.87 0.93 0.94 0.97 1.01 1.03 1.07 1.06 1.06 1.10 1.18 1.29 1.35 1.37 1.38
0.76 0.52 0.70 0.69 0.51 0.56 0.63 0.68 0.69 0.75 0.69 0.61 0.61 0.61 0.56 0.53 0.51 0.48 0.46 0.49 0.52 0.52 0.52 0.54 0.54 0.53 0.57 0.62 0.68 0.75 0.82 0.90 0.91 0.96 0.97 0.98 1.03 1.06 1.11 1.15 1.23 1.32 1.37 1.34
0.89 0.64 0.48 0.40 0.38 0.57 0.66 0.72 0.67 0.65 0.61 0.58 0.50 0.44 0.46 0.46 0.48 0.51 0.50 0.49 0.50 0.50 0.49 0.48 0.46 0.47 0.52 0.59 0.62 0.66 0.76 0.87 0.92 0.97 1.00 1.01 1.06 1.07 1.09 1.14 1.17 1.17 1.21 1.23
0.93 0.77 0.55 0.46 0.31 0.35 0.51 0.75 0.52 0.53 0.57 0.56 0.50 0.58 0.60 0.52 0.50 0.49 0.45 0.44 0.46 0.44 0.43 0.45 0.48 0.50 0.54 0.61 0.63 0.67 0.73 0.83 0.89 0.97 1.08 1.11 1.11 1.10 1.06 1.09 1.15 1.10 1.06 1.05
0.75 0.73 0.48 0.39 0.25 0.23 0.65 0.90 0.54 0.53 0.57 0.55 0.61 0.71 0.65 0.57 0.53 0.50 0.49 0.47 0.45 0.43 0.45 0.52 0.57 0.58 0.60 0.65 0.72 0.75 0.76 0.81 0.85 0.88 0.96 1.02 1.02 1.03 1.04 1.01 1.01 0.96 0.93 0.91
0.52 0.70 0.58 0.36 0.30 0.57 0.77 0.53 0.46 0.46 0.49 0.52 0.56 0.53 0.54 0.56 0.54 0.49 0.52 0.48 0.45 0.44 0.47 0.48 0.53 0.60 0.62 0.66 0.69 0.70 0.71 0.78 0.86 0.86 0.89 0.92 0.95 0.98 1.01 0.97 0.93 0.88 0.83 0.82
0.58 0.68 0.62 0.49 0.53 0.57 0.49 0.43 0.40 0.43 0.45 0.45 0.48 0.48 0.50 0.52 0.49 0.47 0.49 0.49 0.45 0.44 0.43 0.41 0.43 0.50 0.60 0.64 0.66 0.68 0.70 0.75 0.82 0.84 0.86 0.89 0.90 0.92 0.93 0.91 0.87 0.82 0.78 0.75
0.43 0.44 0.41 0.39 0.37 0.38 0.39 0.41 0.38 0.38 0.37 0.36 0.41 0.43 0.44 0.45 0.46 0.45 0.44 0.46 0.46 0.43 0.41 0.42 0.42 0.43 0.50 0.55 0.59 0.64 0.68 0.71 0.74 0.79 0.81 0.80 0.82 0.87 0.90 0.92 0.89 0.82 0.78 0.75
0.38 0.35 0.32 0.31 0.32 0.33 0.31 0.27 0.24 0.23 0.25 0.30 0.36 0.39 0.43 0.46 0.48 0.49 0.49 0.48 0.49 0.47 0.43 0.43 0.41 0.42 0.42 0.45 0.50 0.56 0.62 0.65 0.67 0.69 0.73 0.76 0.77 0.82 0.89 0.89 0.96 1.00 0.93 0.87
0.49 0.37 0.41 0.38 0.28 0.23 0.21 0.20 0.20 0.19 0.19 0.21 0.28 0.33 0.33 0.37 0.42 0.48 0.50 0.48 0.47 0.44 0.42 0.43 0.43 0.44 0.44 0.45 0.48 0.52 0.56 0.59 0.62 0.64 0.67 0.70 0.72 0.75 0.83 0.85 0.92 0.95 0.98 1.00
0.41 0.29 0.27 0.24 0.19 0.17 0.18 0.18 0.18 0.20 0.23 0.25 0.24 0.27 0.31 0.34 0.35 0.39 0.42 0.43 0.46 0.46 0.45 0.42 0.40 0.42 0.46 0.48 0.48 0.49 0.53 0.57 0.58 0.59 0.63 0.67 0.68 0.70 0.73 0.74 0.76 0.80 0.87 0.93
0.26 0.22 0.21 0.17 0.17 0.16 0.16 0.17 0.18 0.20 0.21 0.20 0.20 0.22 0.27 0.29 0.28 0.31 0.39 0.45 0.46 0.43 0.42 0.41 0.39 0.40 0.43 0.46 0.47 0.45 0.46 0.52 0.55 0.55 0.58 0.61 0.63 0.67 0.70 0.71 0.70 0.71 0.77 0.86
0.22 0.22 0.25 0.20 0.18 0.17 0.18 0.19 0.21 0.19 0.17 0.16 0.17 0.20 0.24 0.27 0.30 0.33 0.37 0.39 0.38 0.36 0.38 0.37 0.39 0.42 0.43 0.44 0.45 0.43 0.42 0.45 0.49 0.52 0.54 0.56 0.57 0.60 0.64 0.65 0.65 0.64 0.62 0.70
0.25 0.22 0.20 0.20 0.21 0.23 0.23 0.23 0.21 0.20 0.19 0.20 0.21 0.23 0.25 0.28 0.31 0.33 0.33 0.33 0.35 0.39 0.39 0.36 0.38 0.41 0.39 0.39 0.40 0.40 0.40 0.47 0.49 0.48 0.48 0.49 0.50 0.53 0.57 0.59 0.61 0.60 0.60 0.63
0.32 0.30 0.27 0.28 0.28 0.27 0.25 0.24 0.24 0.24 0.23 0.23 0.24 0.24 0.24 0.25 0.26 0.29 0.32 0.35 0.38 0.41 0.42 0.42 0.43 0.41 0.38 0.37 0.39 0.40 0.41 0.43 0.47 0.45 0.42 0.44 0.47 0.49 0.53 0.56 0.57 0.57 0.58 0.65
0.34 0.35 0.35 0.36 0.34 0.30 0.25 0.23 0.24 0.25 0.26 0.26 0.25 0.23 0.24 0.26 0.28 0.30 0.33 0.34 0.33 0.35 0.37 0.40 0.42 0.40 0.35 0.35 0.37 0.38 0.40 0.42 0.43 0.43 0.42 0.45 0.49 0.50 0.53 0.55 0.53 0.52 0.51 0.56
0.30 0.29 0.29 0.29 0.28 0.28 0.27 0.27 0.27 0.27 0.27 0.27 0.26 0.25 0.25 0.27 0.28 0.30 0.30 0.29 0.30 0.33 0.35 0.36 0.40 0.34 0.29 0.31 0.38 0.37 0.39 0.41 0.42 0.42 0.45 0.51 0.53 0.48 0.50 0.51 0.51 0.50 0.51 0.52
0.26 0.26 0.25 0.25 0.24 0.27 0.29 0.29 0.28 0.28 0.29 0.30 0.28 0.27 0.25 0.25 0.26 0.25 0.25 0.27 0.31 0.34 0.35 0.37 0.35 0.30 0.30 0.33 0.40 0.37 0.37 0.39 0.42 0.43 0.45 0.48 0.50 0.49 0.49 0.50 0.50 0.50 0.50 0.52
0.25 0.26 0.27 0.27 0.28 0.29 0.32 0.33 0.33 0.34 0.34 0.32 0.31 0.30 0.29 0.26 0.25 0.24 0.24 0.26 0.28 0.28 0.29 0.33 0.31 0.32 0.37 0.42 0.44 0.38 0.39 0.42 0.44 0.45 0.47 0.48 0.50 0.50 0.49 0.49 0.50 0.51 0.51 0.52
0.27 0.28 0.29 0.30 0.30 0.32 0.33 0.35 0.35 0.35 0.33 0.32 0.31 0.29 0.28 0.27 0.26 0.25 0.25 0.27 0.29 0.32 0.30 0.28 0.30 0.39 0.48 0.50 0.43 0.40 0.41 0.44 0.46 0.46 0.48 0.49 0.50 0.50 0.48 0.48 0.50 0.49 0.50 0.51
0.28 0.29 0.31 0.33 0.35 0.34 0.31 0.32 0.33 0.32 0.31 0.30 0.30 0.30 0.30 0.30 0.28 0.28 0.30 0.27 0.27 0.30 0.30 0.29 0.36 0.46 0.50 0.45 0.39 0.40 0.42 0.44 0.46 0.48 0.48 0.49 0.50 0.52 0.53 0.51 0.50 0.50 0.51 0.50
0.25 0.27 0.30 0.31 0.31 0.29 0.30 0.31 0.31 0.31 0.30 0.30 0.29 0.30 0.30 0.29 0.26 0.25 0.28 0.28 0.28 0.29 0.28 0.30 0.36 0.41 0.43 0.39 0.39 0.41 0.43 0.44 0.46 0.47 0.48 0.49 0.50 0.51 0.53 0.52 0.50 0.47 0.48 0.48
0.26 0.28 0.29 0.29 0.29 0.30 0.32 0.31 0.28 0.28 0.28 0.27 0.26 0.26 0.27 0.28 0.30 0.28 0.25 0.25 0.26 0.28 0.27 0.28 0.31 0.34 0.35 0.36 0.39 0.43 0.45 0.47 0.51 0.53 0.51 0.51 0.51 0.51 0.51 0.52 0.52 0.50 0.49 0.47
0.25 0.26 0.28 0.29 0.31 0.33 0.32 0.31 0.30 0.30 0.30 0.30 0.28 0.27 0.27 0.28 0.28 0.26 0.25 0.25 0.26 0.29 0.28 0.28 0.29 0.31 0.32 0.34 0.38 0.41 0.43 0.45 0.46 0.47 0.47 0.49 0.49 0.51 0.50 0.49 0.48 0.49 0.48 0.46
0.20 0.21 0.22 0.23 0.26 0.29 0.31 0.32 0.33 0.34 0.33 0.34 0.34 0.30 0.29 0.29 0.29 0.28 0.28 0.27 0.28 0.29 0.29 0.30 0.31 0.33 0.34 0.36 0.38 0.39 0.41 0.42 0.44 0.45 0.47 0.49 0.49 0.49 0.48 0.48 0.47 0.47 0.46 0.45